SOYUZ-MS 14 (44504 NORAD) Tracking and Keplerian Element Data

This shows tracking and keplerian element data for the satellite.

Feedback or suggestion? Click here.




ElementValue
Catalog44504
NameSOYUZ-MS 14
Epoch Orbit208
Epoch Day247.52520833
Epoch Year2019
RAAN327.7287
Inclination51.6461
Eccentricity0.000797
Argument of Perigee4.7177
Mean Anonmoly190.7116
Mean Motion15.50430509
Decay Rate2.017E-05
L11 44504U 19055A 19247.52520833 .00002017 00000-0 42738-4 0 9996
L22 44504 51.6461 327.7287 0007970 4.7177 190.7116 15.50430509 2084

Live tracking and technical data element details for SOYUZ-MS 14 (NORAD 44504). SOYUZ-MS 14 can be tracked NOW for your location showing map with azimuth and elevation plus other details from your city location.

Track the satellite on the map from your city or location and see movement details for azimuth, elevation, latitude, longitude, range, height, and movement on the map or in text.







IsCatalogInMostPopularTable: catalog: 44504, numindb: 10
Update: records affected: 1



GetName: 44504 SOYUZ-MS 14

Hit Count: updated at: Thu, 19 Sep 2019 17:15:49 GMT